TimePDT,TemperatureF,Dew PointF,Humidity,Sea Level PressureIn,VisibilityMPH,Wind Direction,Wind SpeedMPH,Gust SpeedMPH,PrecipitationIn,Events,Conditions,WindDirDegrees,DateUTC
12:15 AM,62.6,35.6,37,30.04,7.0,Calm,Calm,-,N/A,,Overcast,0,2013-08-25 07:15:00
12:35 AM,60.8,35.6,39,30.04,7.0,North,3.5,-,N/A,,Overcast,350,2013-08-25 07:35:00
12:55 AM,60.8,35.6,39,30.04,5.0,Calm,Calm,-,N/A,,Haze,0,2013-08-25 07:55:00
1:15 AM,57.2,37.4,48,30.03,5.0,South,3.5,-,N/A,,Haze,180,2013-08-25 08:15:00
1:35 AM,59.0,37.4,45,30.03,5.0,Calm,Calm,-,N/A,,Haze,0,2013-08-25 08:35:00
1:55 AM,57.2,37.4,48,30.03,5.0,SSE,3.5,-,N/A,,Haze,150,2013-08-25 08:55:00
2:15 AM,57.2,37.4,48,30.03,5.0,Calm,Calm,-,N/A,,Haze,0,2013-08-25 09:15:00
2:35 AM,57.2,37.4,48,30.04,4.0,Calm,Calm,-,N/A,,Haze,0,2013-08-25 09:35:00
2:55 AM,57.2,35.6,44,30.04,3.0,West,3.5,-,N/A,,Haze,280,2013-08-25 09:55:00
3:15 AM,57.2,35.6,44,30.04,3.0,WNW,4.6,-,N/A,,Haze,290,2013-08-25 10:15:00
3:35 AM,55.4,35.6,47,30.04,3.0,North,3.5,-,N/A,,Haze,350,2013-08-25 10:35:00
3:55 AM,51.8,37.4,58,30.04,2.5,Calm,Calm,-,N/A,,Haze,0,2013-08-25 10:55:00
4:15 AM,53.6,37.4,54,30.04,2.5,Calm,Calm,-,N/A,,Haze,0,2013-08-25 11:15:00
4:35 AM,51.8,37.4,58,30.04,2.5,Calm,Calm,-,N/A,,Haze,0,2013-08-25 11:35:00
4:55 AM,50.0,37.4,62,30.04,3.0,Calm,Calm,-,N/A,,Haze,0,2013-08-25 11:55:00
5:15 AM,50.0,37.4,62,30.05,2.5,North,6.9,-,N/A,,Haze,350,2013-08-25 12:15:00
5:35 AM,50.0,37.4,62,30.04,2.5,Calm,Calm,-,N/A,,Haze,0,2013-08-25 12:35:00
5:55 AM,48.2,37.4,66,30.05,2.5,Calm,Calm,-,N/A,,Haze,0,2013-08-25 12:55:00
6:15 AM,50.0,37.4,62,30.06,2.5,Calm,Calm,-,N/A,,Haze,0,2013-08-25 13:15:00
6:35 AM,50.0,37.4,62,30.07,1.5,Calm,Calm,-,N/A,,Haze,0,2013-08-25 13:35:00
6:55 AM,48.2,39.2,71,30.08,1.5,SE,3.5,-,N/A,,Haze,140,2013-08-25 13:55:00
7:15 AM,48.2,39.2,71,30.08,1.8,Calm,Calm,-,N/A,,Haze,0,2013-08-25 14:15:00
7:35 AM,53.6,39.2,58,30.08,1.8,Calm,Calm,-,N/A,,Haze,0,2013-08-25 14:35:00
7:55 AM,55.4,39.2,54,30.08,1.8,East,3.5,-,N/A,,Haze,90,2013-08-25 14:55:00
8:15 AM,55.4,41.0,58,30.08,1.8,Calm,Calm,-,N/A,,Haze,0,2013-08-25 15:15:00
8:35 AM,55.4,39.2,54,30.08,1.5,Calm,Calm,-,N/A,,Haze,0,2013-08-25 15:35:00
8:55 AM,59.0,35.6,42,30.08,1.5,Calm,Calm,-,N/A,,Haze,0,2013-08-25 15:55:00
9:15 AM,60.8,37.4,42,30.08,1.5,Calm,Calm,-,N/A,,Haze,0,2013-08-25 16:15:00
9:35 AM,64.4,37.4,37,30.08,1.5,Calm,Calm,-,N/A,,Haze,0,2013-08-25 16:35:00
9:55 AM,66.2,37.4,35,30.07,1.8,Calm,Calm,-,N/A,,Haze,0,2013-08-25 16:55:00
10:15 AM,68.0,35.6,30,30.07,2.5,Calm,Calm,-,N/A,,Haze,0,2013-08-25 17:15:00
10:35 AM,71.6,35.6,27,30.07,2.5,SSW,6.9,-,N/A,,Haze,200,2013-08-25 17:35:00
10:55 AM,73.4,35.6,25,30.07,4.0,SSW,9.2,-,N/A,,Haze,210,2013-08-25 17:55:00
11:15 AM,75.2,35.6,24,30.06,5.0,South,11.5,18.4,N/A,,Haze,190,2013-08-25 18:15:00
11:35 AM,75.2,35.6,24,30.05,5.0,South,8.1,17.3,N/A,,Haze,190,2013-08-25 18:35:00
11:55 AM,75.2,33.8,22,30.05,6.0,ESE,4.6,-,N/A,,Haze,120,2013-08-25 18:55:00
12:15 PM,75.2,32.0,21,30.04,7.0,South,6.9,16.1,N/A,,Clear,190,2013-08-25 19:15:00
12:35 PM,77.0,35.6,22,30.04,7.0,WSW,11.5,19.6,N/A,,Clear,240,2013-08-25 19:35:00
12:55 PM,77.0,35.6,22,30.04,7.0,SW,5.8,17.3,N/A,,Clear,220,2013-08-25 19:55:00
1:15 PM,77.0,35.6,22,30.04,5.0,SSW,9.2,-,N/A,,Haze,200,2013-08-25 20:15:00
1:35 PM,78.8,32.0,18,30.03,5.0,SSW,9.2,16.1,N/A,,Haze,210,2013-08-25 20:35:00
1:55 PM,77.0,35.6,22,30.03,9.0,SW,12.7,19.6,N/A,,Partly Cloudy,230,2013-08-25 20:55:00
2:15 PM,77.0,35.6,22,30.03,10.0,SW,9.2,16.1,N/A,,Partly Cloudy,230,2013-08-25 21:15:00
2:35 PM,77.0,35.6,22,30.03,9.0,WSW,15.0,25.3,N/A,,Partly Cloudy,240,2013-08-25 21:35:00
2:55 PM,75.2,35.6,24,30.03,7.0,SW,10.4,19.6,N/A,,Clear,230,2013-08-25 21:55:00
3:15 PM,77.0,35.6,22,30.03,6.0,WSW,12.7,23.0,N/A,,Haze,240,2013-08-25 22:15:00
3:35 PM,77.0,35.6,22,30.03,9.0,West,12.7,20.7,N/A,,Clear,260,2013-08-25 22:35:00
3:55 PM,77.0,37.4,24,30.03,10.0,West,15.0,21.9,N/A,,Clear,260,2013-08-25 22:55:00
4:15 PM,77.0,37.4,24,30.02,10.0,WSW,15.0,24.2,N/A,,Clear,250,2013-08-25 23:15:00
4:35 PM,77.0,37.4,24,30.02,10.0,West,15.0,25.3,N/A,,Clear,260,2013-08-25 23:35:00
4:55 PM,77.0,37.4,24,30.02,10.0,WSW,17.3,25.3,N/A,,Clear,250,2013-08-25 23:55:00
5:15 PM,77.0,35.6,22,30.02,10.0,WSW,16.1,26.5,N/A,,Clear,240,2013-08-26 00:15:00
5:35 PM,77.0,35.6,22,30.02,10.0,WSW,15.0,23.0,N/A,,Clear,250,2013-08-26 00:35:00
5:55 PM,75.2,35.6,24,30.02,10.0,WSW,8.1,20.7,N/A,,Clear,250,2013-08-26 00:55:00
6:15 PM,75.2,35.6,24,30.02,10.0,SW,8.1,18.4,N/A,,Clear,220,2013-08-26 01:15:00
6:35 PM,73.4,37.4,27,30.02,10.0,WSW,10.4,18.4,N/A,,Clear,250,2013-08-26 01:35:00
6:55 PM,73.4,37.4,27,30.03,10.0,West,10.4,-,N/A,,Clear,260,2013-08-26 01:55:00
7:15 PM,71.6,37.4,29,30.03,10.0,WSW,9.2,17.3,N/A,,Clear,250,2013-08-26 02:15:00
7:35 PM,71.6,35.6,27,30.04,10.0,West,8.1,16.1,N/A,,Clear,260,2013-08-26 02:35:00
7:55 PM,69.8,37.4,31,30.05,10.0,West,8.1,-,N/A,,Clear,260,2013-08-26 02:55:00
8:15 PM,68.0,37.4,33,30.05,10.0,West,5.8,-,N/A,,Scattered Clouds,260,2013-08-26 03:15:00
8:35 PM,68.0,37.4,33,30.06,10.0,West,6.9,-,N/A,,Mostly Cloudy,260,2013-08-26 03:35:00
8:55 PM,66.2,37.4,35,30.07,10.0,South,3.5,-,N/A,,Overcast,190,2013-08-26 03:55:00
9:15 PM,66.2,39.2,37,30.08,10.0,SW,3.5,-,N/A,,Overcast,230,2013-08-26 04:15:00
9:35 PM,64.4,39.2,40,30.08,10.0,Calm,Calm,-,N/A,,Overcast,0,2013-08-26 04:35:00
9:55 PM,59.0,39.2,48,30.09,10.0,East,4.6,-,N/A,,Overcast,90,2013-08-26 04:55:00
10:15 PM,59.0,39.2,48,30.09,10.0,East,4.6,-,N/A,,Overcast,90,2013-08-26 05:15:00
10:35 PM,62.6,39.2,42,30.09,10.0,Calm,Calm,-,N/A,,Overcast,0,2013-08-26 05:35:00
10:55 PM,62.6,39.2,42,30.09,10.0,Calm,Calm,-,N/A,,Overcast,0,2013-08-26 05:55:00
11:15 PM,62.6,39.2,42,30.09,9.0,Calm,Calm,-,N/A,,Overcast,0,2013-08-26 06:15:00
11:35 PM,59.0,39.2,48,30.09,9.0,Calm,Calm,-,N/A,,Overcast,0,2013-08-26 06:35:00
11:55 PM,59.0,39.2,48,30.09,10.0,Calm,Calm,-,N/A,,Overcast,0,2013-08-26 06:55:00